Weather History for KCKB - October, 2013

Change the Weather History Date:

Friday, October 4, 2013

  Actual Average Record
Temperature  
Mean Temperature 71 °F -  
Max Temperature 82 °F 69 °F - (-1)
Min Temperature 62 °F 44 °F - (-1)
Cooling Degree Days 6    
Growing Degree Days 21 (Base 50)    
Moisture  
Dew Point 62 °F    
Average Humidity 79    
Maximum Humidity 100    
Minimum Humidity 52    
Precipitation  
Precipitation 0.01 in - - ()
Sea Level Pressure  
Sea Level Pressure 30.08 in    
Wind  
Wind Speed 2 mph (SW)    
Max Wind Speed 10 mph    
Max Gust Speed -    
Visibility 8 miles    
Events Fog    
Averages and records for this station are not official NWS values.
T = Trace of Precipitation, MM = Missing Value Source: NWS Daily Summary

Daily Weather History Graph

Daily Weather History Graph

Search for Another Location

Airport or City:

Trip Planner

Search our weather history database for the weather conditions in past years. The results will help you decide how hot, cold, wet, or windy it might be!

Date:

Astronomy

Oct. 04, 2013 Rise Set
Actual Time 7:20 AM EDT 6:58 PM EDT
Civil Twilight 6:53 AM EDT 7:25 PM EDT
Nautical Twilight 6:22 AM EDT 7:56 PM EDT
Astronomical Twilight 5:50 AM EDT 8:27 PM EDT
Moon 6:53 AM EDT (10/4) 6:40 PM EDT (10/4)
Length of Visible Light 12h 31m
Length of Day
11h 38m
Waning Crescent, 0% of the Moon is Illuminated
Oct 4
Waning Crescent
Oct 4
New
Oct 11
First Quarter
Oct 18
Full
Oct 26
Last Quarter

Hourly Weather History & Observations

Time (EDT) Temp. Heat Index Dew Point Humidity Pressure Visibility Wind Dir Wind Speed Gust Speed Precip Events Conditions
12:53 AM 63.0 °F - 61.0 °F 93% 30.06 in 0.2 mi Calm Calm - N/A Fog Fog
1:32 AM 62.6 °F - 62.6 °F 100% 30.09 in 1.2 mi South 3.5 mph - N/A   Partly Cloudy
1:35 AM 62.6 °F - 62.6 °F 100% 30.09 in 3.0 mi Calm Calm - N/A   Partly Cloudy
1:53 AM 64.0 °F - 62.1 °F 93% 30.05 in 6.0 mi Calm Calm - N/A   Scattered Clouds
2:53 AM 63.0 °F - 62.1 °F 97% 30.06 in 4.0 mi Calm Calm - N/A   Clear
3:53 AM 63.0 °F - 61.0 °F 93% 30.05 in 7.0 mi Calm Calm - N/A   Clear
4:53 AM 63.0 °F - 61.0 °F 93% 30.06 in 6.0 mi Calm Calm - N/A   Overcast
5:53 AM 63.0 °F - 60.1 °F 90% 30.08 in 7.0 mi Calm Calm - N/A   Mostly Cloudy
6:53 AM 63.0 °F - 60.1 °F 90% 30.09 in 8.0 mi Calm Calm - N/A   Scattered Clouds
7:53 AM 64.0 °F - 60.1 °F 87% 30.11 in 7.0 mi Calm Calm - N/A   Overcast
8:53 AM 66.0 °F - 61.0 °F 84% 30.13 in 9.0 mi Calm Calm - N/A   Mostly Cloudy
9:53 AM 66.0 °F - 62.1 °F 87% 30.14 in 9.0 mi South 3.5 mph - N/A   Overcast
10:53 AM 71.1 °F - 63.0 °F 75% 30.12 in 10.0 mi SSW 3.5 mph - N/A   Clear
11:53 AM 73.9 °F - 64.9 °F 73% 30.11 in 10.0 mi SW 4.6 mph - N/A   Clear
12:48 PM 78.8 °F - 64.4 °F 61% 30.14 in 10.0 mi SSW 5.8 mph - N/A   Mostly Cloudy
12:53 PM 78.1 °F - 66.0 °F 66% 30.10 in 10.0 mi SW 10.4 mph - N/A   Mostly Cloudy
1:17 PM 78.8 °F - 64.4 °F 61% 30.13 in 10.0 mi WSW 5.8 mph - N/A   Scattered Clouds
1:53 PM 80.1 °F 81.7 °F 64.0 °F 58% 30.08 in 10.0 mi West 8.1 mph - N/A   Clear
2:53 PM 80.1 °F 81.5 °F 63.0 °F 56% 30.06 in 10.0 mi SW 6.9 mph - N/A   Partly Cloudy
3:53 PM 80.1 °F 81.2 °F 62.1 °F 54% 30.05 in 10.0 mi West 4.6 mph - N/A   Scattered Clouds
4:53 PM 80.1 °F 81.1 °F 61.0 °F 52% 30.04 in 10.0 mi SW 8.1 mph - N/A   Partly Cloudy
5:53 PM 77.0 °F - 62.1 °F 60% 30.06 in 10.0 mi WSW 4.6 mph - N/A   Clear
6:53 PM 75.0 °F - 62.1 °F 64% 30.06 in 10.0 mi SW 3.5 mph - N/A   Clear
7:53 PM 71.1 °F - 63.0 °F 75% 30.07 in 10.0 mi South 4.6 mph - N/A   Mostly Cloudy
8:53 PM 68.0 °F - 63.0 °F 84% 30.07 in 10.0 mi Calm Calm - N/A   Clear
9:53 PM 66.9 °F - 62.1 °F 84% 30.08 in 10.0 mi Calm Calm - N/A   Clear
10:53 PM 66.0 °F - 63.0 °F 90% 30.09 in 10.0 mi Calm Calm - N/A   Mostly Cloudy
11:53 PM 64.9 °F - 62.1 °F 90% 30.08 in 9.0 mi Calm Calm - N/A   Scattered Clouds